Temp
6 5 5 5 5 4 4 4 4 3 3 2 1 2 1 1 1 1 1 1 1 0 0 0 -1 -1 -1 -1 -1 -1 -1 -2 -1 -1 -2 -2 -2 -3 -3 -3 -5 -5 -5
6 5 5 5 5 5 4 4 4 3 3 3 2 2 2 2 1 1 1 1 0 0 -0 -1 -1 -1 -0 -1 -1 -1 -1 -1 -1 -1 -2 -2 -2 -3 -3 -5 -4 -5 -5
6 6 5 5 5 5 5 4 4 3 2 2 2 2 1 1 1 1 1 1 0 0 -0 -0 -1 -1 -1 -0 -1 -1 -1 -1 -1 -1 -2 -3 -3 -3 -4 -4 -5 -6 -6
6 5 5 5 5 5 4 4 4 3 3 2 2 2 1 1 1 1 1 1 0 -0 -0 0 -0 -0 -0 -0 -1 -1 -1 -1 -2 -2 -3 -3 -3 -4 -5 -5 -6 -6 -6
6 6 5 5 4 4 4 4 3 3 2 2 2 1 1 1 1 1 1 1 1 0 0 0 -0 -0 -0 -0 -0 -1 -1 -2 -2 -2 -2 -3 -4 -4 -5 -6 -6 -6 -7
6 6 5 5 4 4 4 3 3 3 3 2 2 2 1 2 2 1 1 1 1 0 1 0 -0 1 0 -0 -1 -1 -2 -2 -3 -4 -3 -4 -4 -5 -6 -6 -6 -7 -7
6 6 5 5 5 5 4 4 4 3 3 3 2 2 2 2 2 2 2 1 1 1 1 0 -0 -1 -0 -1 -1 -1 -2 -2 -3 -4 -4 -5 -6 -6 -6 -6 -6 -8 -10
6 6 6 5 5 5 4 4 4 3 3 3 3 2 2 2 2 2 2 1 1 1 -0 -1 -0 -1 -1 -1 -2 -3 -3 -4 -4 -4 -5 -5 -6 -6 -6 -7 -8 -10 -11
6 6 6 5 5 5 4 4 3 3 3 3 2 2 2 2 2 2 2 1 -1 -0 -0 -1 -1 -1 -2 -2 -3 -3 -3 -4 -5 -5 -5 -6 -6 -7 -8 -9 -11 -11 -11
6 6 6 5 5 5 4 4 3 3 3 2 2 2 2 2 1 1 -0 -1 -1 -1 -1 -1 -2 -3 -4 -3 -4 -5 -5 -5 -5 -6 -6 -7 -7 -8 -10 -11 -12 -12 -13
6 6 5 5 5 5 4 4 3 3 3 2 2 2 2 1 1 -1 -1 -1 -2 -2 -2 -3 -4 -4 -4 -5 -5 -5 -5 -6 -6 -7 -7 -8 -9 -10 -11 -12 -13 -13 -13
6 6 5 5 5 5 4 4 3 3 2 2 2 2 -0 -1 -2 -1 -2 -2 -3 -3 -4 -4 -4 -5 -5 -5 -5 -6 -7 -8 -8 -9 -10 -11 -11 -12 -13 -13 -13 -14 -14
5 5 5 5 4 4 4 3 3 2 2 2 1 -0 -1 -1 -2 -3 -3 -4 -4 -5 -5 -5 -5 -6 -6 -7 -8 -8 -9 -9 -10 -11 -11 -12 -12 -13 -13 -14 -14 -14 -15
4 4 4 4 3 3 3 3 2 2 1 1 -1 -1 -2 -3 -3 -3 -3 -4 -5 -6 -6 -7 -7 -7 -8 -9 -9 -10 -10 -11 -11 -12 -12 -13 -13 -14 -14 -15 -15 -15 -16
3 3 3 3 2 2 2 1 1 0 -1 -2 -2 -3 -3 -4 -5 -5 -6 -6 -7 -7 -7 -8 -8 -9 -10 -10 -11 -11 -11 -12 -12 -13 -14 -14 -15 -15 -15 -16 -17 -17 -17
1 0 0 0 1 -0 -1 -0 -1 -2 -2 -4 -5 -5 -5 -6 -6 -6 -7 -7 -8 -8 -9 -10 -10 -11 -11 -12 -12 -12 -13 -13 -14 -15 -15 -16 -16 -17 -18 -18 -19 -19 -19
-1 -1 -1 -1 -2 -2 -3 -3 -3 -4 -4 -5 -6 -6 -7 -7 -7 -8 -8 -9 -9 -10 -11 -11 -11 -12 -12 -13 -13 -14 -15 -15 -16 -17 -17 -18 -19 -20 -20 -20 -21 -21 -21
-2 -2 -2 -3 -3 -3 -3 -4 -5 -5 -6 -7 -7 -8 -8 -8 -8 -9 -9 -10 -11 -11 -12 -12 -12 -13 -14 -14 -15 -15 -16 -17 -18 -19 -19 -20 -21 -22 -22 -23 -23 -23 -23
-3 -3 -4 -4 -4 -5 -5 -6 -6 -7 -8 -8 -8 -8 -9 -9 -10 -10 -11 -11 -12 -12 -12 -13 -14 -14 -15 -16 -16 -17 -18 -19 -19 -20 -21 -22 -23 -24 -24 -25 -25 -25 -25
-4 -5 -5 -5 -6 -6 -7 -8 -8 -9 -9 -9 -9 -10 -10 -11 -11 -11 -12 -12 -12 -13 -14 -14 -15 -16 -16 -17 -18 -19 -20 -21 -21 -23 -23 -24 -25 -26 -26 -26 -26 -26 -26
-6 -7 -7 -7 -8 -8 -9 -9 -9 -9 -10 -10 -11 -11 -11 -11 -12 -12 -13 -13 -14 -14 -15 -16 -17 -17 -18 -19 -20 -21 -22 -23 -24 -24 -25 -25 -26 -26 -26 -26 -27 -27 -26
-8 -8 -9 -9 -9 -9 -10 -10 -10 -10 -11 -11 -11 -12 -12 -13 -13 -14 -14 -15 -15 -16 -17 -17 -18 -19 -20 -21 -22 -23 -23 -24 -24 -25 -25 -26 -26 -26 -26 -27 -27 -27 -27
-9 -10 -10 -10 -11 -11 -10 -11 -11 -11 -12 -12 -13 -13 -14 -14 -15 -15 -16 -16 -17 -18 -19 -19 -20 -21 -22 -22 -23 -23 -24 -24 -25 -25 -25 -26 -26 -27 -27 -27 -27 -27 -27
-11 -11 -11 -11 -11 -11 -11 -12 -12 -13 -13 -13 -14 -14 -15 -15 -16 -16 -17 -18 -19 -19 -20 -21 -21 -22 -22 -23 -23 -24 -24 -25 -25 -26 -26 -26 -27 -27 -27 -27 -27 -27 -26
-12 -12 -11 -12 -12 -12 -12 -13 -13 -14 -14 -15 -15 -15 -16 -17 -17 -18 -19 -19 -20 -21 -21 -22 -22 -22 -23 -23 -24 -24 -25 -25 -25 -25 -26 -26 -26 -26 -26 -26 -26 -26 -26
-12 -12 -12 -13 -13 -13 -14 -14 -15 -15 -15 -16 -16 -17 -18 -18 -19 -20 -20 -21 -21 -22 -22 -23 -23 -23 -24 -24 -24 -25 -25 -25 -25 -25 -26 -26 -26 -26 -26 -26 -27 -26 -26
Height
3056 3058 3061 3063 3066 3068 3071 3074 3077 3080 3083 3087 3091 3094 3096 3099 3102 3103 3105 3105 3105 3104 3103 3102 3100 3096 3096 3095 3092 3089 3092 3089 3085 3085 3082 3084 3082 3081 3077 3075 3071 3071 3067
3055 3057 3060 3062 3064 3067 3070 3073 3076 3078 3081 3084 3086 3089 3091 3093 3095 3095 3096 3096 3095 3095 3094 3090 3089 3088 3085 3084 3083 3076 3082 3080 3078 3074 3075 3074 3070 3069 3066 3064 3062 3061 3056
3051 3054 3057 3059 3062 3065 3068 3070 3071 3074 3077 3079 3081 3083 3086 3087 3088 3087 3086 3086 3086 3086 3084 3080 3080 3080 3078 3076 3075 3073 3074 3071 3070 3067 3065 3065 3062 3058 3056 3054 3052 3048 3045
3047 3049 3051 3054 3056 3059 3062 3063 3064 3066 3068 3071 3074 3076 3077 3078 3078 3077 3077 3078 3075 3074 3075 3073 3072 3070 3069 3068 3067 3065 3064 3062 3060 3058 3057 3053 3052 3049 3047 3044 3039 3036 3033
3041 3043 3046 3049 3051 3054 3055 3057 3059 3059 3060 3064 3065 3066 3067 3068 3069 3070 3069 3068 3066 3066 3065 3064 3062 3062 3060 3059 3057 3056 3053 3052 3050 3049 3045 3043 3042 3038 3034 3031 3027 3025 3020
3037 3039 3041 3043 3045 3047 3049 3050 3052 3055 3056 3058 3058 3058 3059 3060 3061 3060 3059 3058 3057 3056 3055 3054 3053 3052 3051 3049 3048 3046 3044 3042 3039 3036 3034 3033 3030 3026 3023 3019 3014 3009 3006
3030 3033 3036 3038 3039 3041 3042 3043 3045 3047 3049 3050 3051 3052 3052 3052 3052 3051 3050 3049 3047 3047 3045 3044 3044 3043 3041 3039 3037 3035 3033 3031 3029 3026 3023 3021 3019 3013 3010 3005 3001 2996 2993
3026 3027 3030 3032 3033 3035 3036 3038 3038 3039 3040 3041 3042 3043 3043 3043 3043 3043 3042 3039 3037 3036 3035 3034 3033 3032 3031 3028 3027 3024 3023 3020 3018 3016 3012 3008 3005 3000 2996 2991 2987 2982 2979
3019 3021 3024 3025 3027 3028 3029 3030 3031 3032 3033 3034 3034 3035 3035 3034 3034 3033 3030 3028 3027 3027 3025 3024 3023 3021 3019 3019 3016 3014 3011 3008 3006 3003 2999 2995 2991 2987 2982 2976 2974 2969 2965
3013 3014 3016 3017 3019 3020 3021 3022 3023 3024 3025 3025 3025 3025 3024 3023 3021 3020 3020 3019 3019 3018 3017 3014 3013 3011 3010 3007 3005 3002 2999 2996 2992 2988 2985 2980 2976 2971 2969 2964 2960 2956 2952
3004 3006 3007 3009 3011 3012 3013 3014 3015 3015 3015 3015 3015 3015 3014 3013 3011 3012 3012 3010 3009 3008 3006 3005 3003 3001 2999 2996 2993 2989 2985 2982 2978 2974 2969 2965 2961 2957 2953 2950 2946 2941 2937
2994 2996 2997 2999 3001 3003 3004 3005 3005 3005 3005 3005 3005 3004 3003 3003 3003 3003 3002 3002 3000 2999 2997 2995 2992 2990 2987 2984 2981 2977 2972 2968 2963 2960 2955 2951 2947 2943 2940 2936 2931 2927 2922
2983 2986 2988 2990 2992 2993 2994 2995 2996 2996 2996 2995 2995 2995 2995 2995 2994 2994 2993 2991 2990 2989 2987 2984 2981 2978 2975 2971 2967 2963 2960 2955 2950 2946 2941 2937 2933 2928 2924 2920 2916 2913 2908
2974 2977 2979 2980 2982 2984 2985 2985 2986 2986 2986 2986 2986 2986 2986 2985 2985 2983 2983 2982 2980 2978 2976 2973 2970 2967 2963 2958 2954 2950 2946 2942 2937 2931 2927 2923 2918 2914 2909 2906 2901 2898 2894
2966 2969 2970 2972 2973 2974 2975 2976 2976 2976 2977 2977 2976 2976 2976 2975 2975 2974 2973 2971 2970 2967 2965 2962 2958 2954 2950 2945 2941 2936 2931 2926 2922 2918 2913 2908 2903 2898 2894 2890 2886 2882 2878
2961 2963 2964 2964 2964 2965 2966 2966 2967 2966 2966 2967 2966 2967 2967 2967 2967 2966 2964 2963 2960 2957 2952 2948 2944 2942 2938 2933 2929 2924 2919 2913 2908 2904 2898 2892 2887 2882 2877 2874 2869 2865 2862
2956 2957 2957 2957 2957 2957 2958 2956 2955 2958 2960 2962 2961 2961 2960 2959 2958 2957 2955 2952 2948 2945 2942 2938 2934 2930 2926 2922 2917 2911 2906 2899 2894 2888 2882 2876 2871 2866 2862 2858 2854 2850 2847
2948 2949 2949 2949 2950 2951 2953 2952 2952 2953 2953 2954 2954 2954 2953 2951 2950 2947 2944 2940 2938 2935 2932 2927 2923 2919 2914 2909 2903 2897 2891 2884 2878 2871 2865 2860 2855 2850 2846 2842 2839 2835 2833
2942 2943 2943 2945 2946 2946 2946 2946 2946 2947 2947 2947 2946 2945 2944 2942 2939 2937 2935 2932 2928 2923 2920 2915 2910 2905 2900 2894 2887 2881 2875 2869 2862 2856 2851 2845 2841 2836 2833 2829 2826 2824 2821
2937 2938 2938 2938 2939 2940 2940 2941 2940 2941 2940 2940 2938 2936 2935 2933 2931 2928 2925 2921 2917 2912 2907 2901 2896 2891 2885 2879 2873 2867 2862 2856 2849 2843 2838 2833 2829 2825 2822 2819 2817 2814 2812
2933 2933 2935 2937 2937 2936 2936 2936 2934 2933 2933 2932 2931 2929 2926 2923 2920 2917 2913 2909 2904 2899 2894 2890 2885 2880 2874 2868 2862 2857 2851 2845 2840 2835 2830 2826 2822 2818 2815 2812 2809 2807 2805
2931 2931 2932 2932 2931 2930 2930 2929 2929 2928 2926 2925 2923 2920 2916 2913 2909 2905 2901 2897 2893 2888 2884 2879 2875 2870 2864 2858 2853 2848 2843 2838 2834 2829 2824 2820 2816 2812 2809 2806 2804 2801 2799
2926 2926 2926 2926 2926 2926 2925 2924 2922 2920 2918 2916 2913 2910 2906 2902 2898 2894 2891 2887 2883 2879 2875 2870 2865 2860 2855 2851 2846 2842 2837 2832 2827 2823 2819 2815 2812 2808 2805 2802 2799 2797 2795
2922 2922 2923 2922 2922 2920 2919 2917 2915 2912 2910 2907 2904 2900 2897 2893 2890 2887 2883 2880 2875 2871 2866 2862 2858 2853 2849 2845 2841 2836 2832 2827 2823 2819 2815 2812 2808 2804 2801 2798 2796 2793 2791
2919 2918 2918 2917 2915 2914 2912 2910 2908 2905 2902 2899 2896 2893 2890 2887 2884 2881 2877 2872 2867 2863 2859 2855 2851 2847 2843 2839 2835 2831 2827 2823 2819 2815 2812 2808 2804 2801 2797 2794 2792 2789 2787
2914 2913 2913 2912 2909 2908 2906 2903 2901 2898 2895 2893 2890 2887 2884 2881 2877 2873 2869 2864 2860 2857 2853 2849 2845 2841 2837 2833 2829 2826 2823 2819 2815 2811 2807 2804 2801 2797 2794 2791 2788 2786 2784
Wind_Speed
17 17 17 17 18 18 18 19 21 24 27 29 32 34 34 35 36 37 37 38 41 43 43 46 47 50 52 52 57 50 47 42 42 40 29 32 37 37 40 44 37 38 47
19 20 20 20 20 21 20 20 21 23 25 27 30 32 34 35 36 38 38 41 44 47 50 57 45 41 40 43 41 36 45 43 41 33 36 36 37 37 44 40 37 46 46
18 18 21 23 22 21 19 21 23 26 29 29 31 33 33 36 38 39 41 42 45 48 45 32 39 39 34 35 33 33 36 37 37 41 33 35 39 40 36 38 47 47 44
21 21 22 22 24 24 25 27 27 31 35 29 31 34 35 36 40 42 43 45 47 45 42 41 35 37 37 36 40 42 38 43 39 35 37 42 38 35 42 49 47 43 48
22 21 22 21 25 29 30 32 33 24 29 29 28 32 35 39 41 43 44 42 42 39 39 38 39 40 42 40 38 37 39 40 38 40 48 39 41 47 51 53 50 49 53
20 17 17 19 23 24 29 33 35 30 31 32 34 37 35 34 34 36 39 41 43 45 45 42 42 43 40 41 38 40 39 43 40 43 47 43 44 49 55 53 51 56 52
19 16 16 19 20 22 23 24 25 31 35 37 39 38 37 37 36 36 38 40 43 42 43 43 44 42 46 40 40 41 43 47 45 44 45 44 48 56 54 55 58 54 51
22 20 19 19 19 22 25 26 25 28 33 36 39 40 40 40 40 40 41 44 45 45 46 44 44 45 41 44 44 39 42 49 46 43 46 55 55 54 58 60 56 53 54
27 25 25 25 26 26 25 29 30 30 32 34 35 37 39 41 42 43 43 38 37 39 40 40 36 38 42 40 43 48 44 42 46 53 58 57 59 61 59 58 54 58 58
33 32 30 30 30 29 27 29 32 32 33 35 36 38 39 40 42 39 34 33 32 35 37 37 41 45 42 43 43 47 50 53 54 57 59 61 60 57 55 56 55 56 57
36 37 35 35 33 31 29 29 32 33 33 35 37 38 39 39 35 32 32 31 34 37 37 39 42 43 46 48 50 50 52 58 59 59 58 56 55 55 56 56 55 54 55
39 40 38 37 35 32 29 31 31 32 33 34 35 36 32 31 32 35 35 36 38 40 41 43 45 47 48 50 52 53 52 53 54 55 55 55 55 54 53 53 53 52 52
38 37 37 37 34 30 30 31 31 32 33 32 32 30 32 35 36 37 39 37 37 40 42 44 46 47 48 50 50 51 52 54 54 54 55 55 53 53 53 52 51 50 50
35 36 34 32 31 32 31 32 31 32 31 30 30 32 34 35 34 32 37 39 40 40 38 39 43 46 48 51 53 53 54 54 53 53 52 53 53 53 52 51 52 50 50
33 33 32 33 30 29 31 29 27 29 28 29 30 31 31 30 31 33 34 34 34 36 40 44 47 48 50 51 52 52 51 51 51 52 52 53 54 55 54 54 53 52 50
25 25 25 25 28 25 27 30 29 27 30 28 24 26 26 28 30 31 32 35 38 41 44 46 47 46 47 47 48 49 50 52 54 55 56 57 57 57 56 54 52 50 49
19 21 23 24 24 26 22 20 19 19 19 20 22 24 25 27 29 32 35 39 41 41 40 40 41 43 45 47 50 52 54 56 57 57 57 56 56 55 54 52 50 49 47
22 18 19 19 17 16 19 19 20 19 20 22 24 25 27 30 33 36 36 35 35 36 38 41 44 47 48 50 52 53 54 55 55 55 55 55 53 52 50 48 45 44 43
12 18 14 18 21 20 19 20 20 21 21 22 24 27 30 30 30 30 32 35 38 41 42 44 46 47 48 50 51 51 52 52 51 51 50 48 45 44 42 40 38 37 36
20 21 22 23 23 22 21 20 20 21 23 24 24 24 25 28 31 33 35 37 39 41 42 44 45 46 47 47 47 47 46 45 43 41 40 38 36 34 33 32 31 31 30
20 18 18 18 18 17 18 19 19 19 20 21 24 26 29 31 32 34 36 37 38 39 40 41 42 42 42 41 40 39 37 36 34 33 31 30 29 29 28 27 27 26 26
17 16 15 15 15 16 16 16 18 20 23 25 26 27 29 31 32 33 34 36 37 37 38 38 37 36 35 34 34 33 32 31 30 29 28 27 26 25 25 24 24 24 23
10 10 11 12 13 15 17 19 21 22 23 25 26 27 28 30 31 32 34 35 35 35 34 33 32 31 31 31 31 30 29 28 27 26 25 23 22 23 23 22 22 21 21
8 9 12 13 15 17 18 19 21 22 23 24 25 27 28 30 31 32 32 32 32 31 31 30 29 28 28 28 28 27 26 24 23 22 21 20 20 21 21 21 21 21 20
10 11 13 15 16 18 19 20 20 21 23 24 26 27 28 28 29 29 29 29 29 29 28 27 26 26 25 25 23 22 21 21 21 21 21 21 20 20 21 21 21 20 19
12 14 15 17 17 18 18 19 20 22 23 24 25 26 26 26 26 26 27 27 27 26 26 25 24 24 22 21 20 20 20 21 22 23 21 19 17 17 18 18 18 17 15
Wind_Direction
198 197 198 196 198 204 207 208 210 212 215 218 222 229 235 240 247 254 260 265 269 273 278 277 278 289 270 269 288 259 271 276 277 289 266 288 289 293 286 292 297 278 287
211 211 212 210 209 211 215 221 227 229 232 236 236 238 241 245 250 254 259 265 270 273 277 278 281 285 281 279 284 279 260 277 292 274 280 267 285 278 289 297 274 284 293
217 223 224 221 221 222 228 228 234 240 236 236 241 244 246 250 253 256 259 265 273 269 281 286 265 284 282 283 279 279 277 285 285 282 262 271 285 292 280 272 285 296 289
228 230 229 231 229 238 238 237 243 248 233 242 248 248 250 252 253 256 258 266 269 271 271 270 273 274 281 281 281 274 276 282 285 271 259 295 277 275 280 296 294 288 287
226 230 232 229 229 234 237 239 243 243 234 233 240 245 246 250 255 261 262 266 267 265 267 274 276 279 282 282 280 280 285 276 279 266 290 287 279 279 291 296 285 287 293
211 217 213 217 218 222 226 236 239 234 233 236 243 248 252 256 260 263 264 263 262 263 268 272 276 278 274 280 275 280 281 278 283 290 288 279 281 281 292 288 280 293 291
208 215 222 228 232 235 234 234 237 233 235 237 244 250 252 254 258 263 266 267 267 269 270 273 276 277 279 278 270 273 283 278 279 283 279 281 287 287 290 282 286 287 287
220 221 232 244 248 245 247 248 250 239 237 241 245 249 252 256 261 265 268 268 268 268 269 271 270 275 271 272 280 277 271 282 286 274 278 286 289 281 284 284 289 288 287
222 227 235 243 251 256 253 248 249 250 248 247 248 252 256 261 265 268 273 269 265 265 268 272 266 267 272 276 275 281 276 274 278 280 284 285 283 284 286 288 289 291 295
235 232 234 240 246 255 257 250 249 251 250 251 253 257 262 266 270 272 268 264 262 262 264 264 268 274 274 274 275 276 280 282 284 285 285 284 286 288 289 290 292 294 295
244 237 235 241 247 255 257 252 249 252 255 256 259 263 265 268 268 265 269 268 264 269 272 273 275 274 275 278 279 282 285 285 284 285 288 291 292 292 293 294 292 290 292
234 237 235 240 246 251 253 253 252 254 256 259 261 263 264 260 265 263 268 269 271 274 275 277 279 282 284 285 286 286 287 287 289 291 292 292 291 289 289 289 289 290 290
236 231 233 240 243 244 249 251 255 256 256 257 258 255 254 257 263 266 270 274 276 278 280 281 282 284 284 284 285 286 288 290 291 291 290 290 291 290 291 291 291 290 289
226 226 231 236 240 244 245 247 249 252 252 253 255 256 257 261 267 272 274 273 273 277 281 285 286 285 285 287 288 290 291 291 292 292 292 292 292 292 291 290 289 289 287
222 227 229 234 237 239 245 246 248 249 248 249 250 254 260 263 266 268 270 274 278 283 286 286 286 287 289 290 292 293 293 294 294 293 292 291 291 291 291 291 290 289 287
229 234 237 235 236 239 248 249 246 246 249 249 249 254 257 262 268 272 276 280 283 285 287 288 289 291 292 292 292 293 293 293 293 294 293 293 292 291 291 290 289 287 284
248 243 243 244 244 242 235 238 243 247 253 260 263 265 265 269 273 276 281 284 285 287 288 289 290 290 291 292 293 293 294 294 294 293 293 293 292 291 291 289 288 286 285
266 265 263 251 248 260 270 272 272 266 258 258 259 268 276 279 281 282 284 286 288 289 290 292 293 293 294 295 296 296 297 297 297 297 296 295 294 293 291 290 288 286 284
282 260 240 257 255 251 258 261 252 248 255 266 274 277 279 281 283 286 289 291 293 294 295 296 297 299 300 300 301 301 302 302 301 300 300 298 298 296 295 292 290 289 287
244 238 237 236 236 242 247 249 258 268 274 276 279 282 285 289 290 292 293 294 296 298 301 302 303 304 305 306 306 306 306 307 307 308 308 307 306 303 300 297 295 293 290
233 237 240 240 246 257 267 272 275 278 282 287 289 290 292 294 296 298 301 303 304 305 306 307 308 308 309 309 310 312 315 317 317 317 315 313 311 308 305 302 299 297 295
240 244 251 259 265 270 275 281 287 291 293 292 294 297 300 301 303 305 307 308 309 310 310 311 312 314 316 318 318 319 319 318 318 318 318 318 316 312 309 306 304 303 302
252 255 261 269 277 284 290 294 294 294 297 300 302 304 306 308 310 311 311 311 312 312 313 316 319 321 321 320 319 319 318 317 318 318 319 319 316 313 311 310 307 305 303
260 272 283 292 297 297 296 298 300 302 304 306 308 310 311 312 312 312 312 312 313 314 318 320 321 320 319 319 319 318 319 319 321 322 322 321 318 314 311 309 307 305 306
298 304 299 297 298 299 301 303 305 308 310 311 312 312 312 312 312 312 313 315 317 318 317 317 318 318 319 319 320 321 322 323 324 323 323 321 317 313 309 307 306 305 306
301 302 303 303 305 305 306 308 310 311 312 313 313 313 312 312 313 315 317 318 318 317 317 317 317 318 320 322 324 323 324 324 323 323 325 325 325 323 320 319 315 311 304